Theta_e
309 308 308 307 306 305 304 302 301 300 300 302 302 303 304 305 306 301 300 303 310 309 310 312 310 311 310 309 307 309 310 312 309 306 304 303 302 304 304 305 305 303 303 303 302 299 295 312 310 307 313 313 316 315
308 308 307 306 306 304 302 301 300 300 300 300 302 302 303 305 305 300 304 305 307 308 307 306 309 311 309 314 311 312 310 312 310 306 304 304 302 302 303 298 306 301 307 306 307 305 312 313 313 316 314 315 316 315
308 307 307 306 305 304 302 301 300 299 299 301 302 301 302 304 304 303 299 301 305 304 304 301 303 306 310 308 316 307 312 315 316 314 309 307 304 305 301 302 303 307 310 309 308 311 311 314 316 317 317 316 317 317
307 307 306 305 304 304 302 301 300 299 299 301 302 301 301 303 303 303 298 299 305 303 298 298 308 308 312 316 316 315 315 315 314 311 311 310 307 307 304 305 305 307 311 309 308 311 313 315 317 318 317 318 318 316
306 306 305 305 304 303 302 301 300 300 300 301 302 301 301 302 303 301 299 300 304 304 299 302 306 307 310 315 313 313 313 312 310 309 308 308 307 304 304 303 302 308 309 306 304 315 316 315 319 319 316 314 316 315
305 305 304 304 304 303 302 302 301 300 301 302 302 301 302 302 301 301 300 303 304 306 301 298 304 304 308 313 312 311 310 307 307 307 306 306 304 304 302 301 307 308 310 314 310 312 315 316 315 316 314 315 315 315
304 304 304 304 303 303 303 302 301 302 302 303 302 301 302 302 299 299 298 300 302 305 300 296 298 302 304 305 304 309 309 306 306 304 304 304 304 305 301 298 306 308 308 310 311 312 310 311 311 315 316 315 314 316
304 304 304 303 303 303 303 303 302 303 303 303 302 302 302 302 298 297 304 304 303 303 302 294 296 301 304 302 301 303 306 307 305 304 304 302 302 302 298 304 305 304 305 308 310 311 311 314 315 314 314 314 313 313
303 303 304 304 304 304 303 303 303 304 303 303 302 302 299 296 293 299 306 305 306 301 293 296 295 295 302 301 303 302 304 300 302 302 302 303 300 296 301 302 302 303 305 306 310 310 311 312 312 311 312 313 312 311
303 303 303 303 303 304 304 304 303 304 303 302 300 296 290 297 301 306 300 297 297 298 301 297 299 296 301 300 299 301 301 299 295 299 300 299 298 305 306 307 307 307 307 309 307 307 309 309 310 311 312 312 312 310
301 301 301 303 303 304 304 304 304 303 301 297 296 297 301 304 302 296 291 290 290 289 293 296 298 298 302 299 299 301 299 299 294 298 297 296 296 302 306 306 307 308 309 310 312 313 313 313 311 311 311 311 311 311
301 301 300 302 304 304 304 304 304 300 298 299 299 300 302 299 295 290 288 289 288 287 291 292 295 299 299 302 301 300 298 298 293 300 296 294 301 305 307 307 306 308 310 311 311 311 311 312 313 313 312 311 311 312
302 302 301 302 303 303 304 304 302 302 302 301 298 294 292 292 286 285 283 286 287 292 293 293 292 297 298 299 298 298 295 295 299 296 295 299 304 304 307 308 308 307 309 311 309 311 313 313 313 312 311 312 313 310
301 301 302 302 303 303 303 303 303 302 299 293 290 284 286 284 287 288 289 291 294 296 296 295 294 296 296 295 295 293 296 295 290 288 291 299 302 305 305 307 307 306 308 309 310 312 311 311 310 311 311 311 310 309
301 302 302 302 302 302 303 302 302 302 297 290 290 285 286 290 291 293 293 293 296 298 297 295 295 297 295 293 294 292 289 289 290 292 296 302 303 303 304 306 306 307 309 310 311 310 309 309 309 310 311 312 312 311
301 300 299 302 302 302 301 300 300 300 295 292 290 287 290 289 290 291 293 294 297 298 299 298 294 292 292 293 290 290 288 288 292 301 302 303 304 304 303 304 306 307 309 310 310 309 308 308 309 310 311 312 312 312
299 296 301 301 301 301 300 298 298 292 290 288 288 291 291 290 291 292 294 295 298 297 294 295 291 289 295 291 290 294 292 297 299 302 305 305 305 304 305 305 306 308 308 308 308 308 308 308 307 305 304 307 311 312
296 299 301 301 299 298 298 297 293 289 286 289 288 289 291 292 292 293 294 296 297 296 296 293 296 291 290 289 291 296 297 299 300 300 303 305 307 307 307 306 306 306 306 305 304 304 303 302 303 303 303 304 308 311
299 300 301 301 299 296 292 292 294 286 288 290 290 290 291 291 292 294 294 296 299 300 297 294 290 289 290 296 295 295 296 296 296 297 300 305 307 307 307 308 308 308 308 308 308 306 306 304 304 305 305 306 309 312
301 300 300 301 300 294 289 291 295 290 287 289 290 289 290 291 292 293 294 294 298 297 293 291 291 294 295 299 300 299 299 300 298 296 297 299 303 307 306 307 307 305 305 305 305 298 306 306 306 307 307 307 308 310
298 298 299 298 296 295 293 291 290 291 290 288 290 290 290 291 291 291 292 295 294 292 290 294 295 298 300 301 302 302 302 301 299 299 297 296 300 299 302 306 307 305 304 303 304 303 298 302 303 302 304 307 309 309
297 299 296 297 293 293 291 293 291 291 289 288 288 289 288 288 289 290 292 290 291 293 294 295 296 297 297 298 299 301 302 302 301 298 293 295 297 297 297 300 302 302 304 304 304 304 304 305 304 304 306 307 304 307
298 297 295 294 288 286 286 291 287 287 285 286 288 286 287 288 290 291 289 291 292 294 294 294 294 295 295 296 296 297 297 297 297 297 297 296 297 297 298 298 299 299 299 301 305 305 304 301 303 303 305 304 306 305
298 293 289 287 287 284 289 287 288 286 286 285 285 284 286 288 290 288 286 289 292 295 295 294 295 295 296 296 296 297 297 297 297 297 298 298 297 298 300 299 300 300 300 301 301 303 305 305 299 302 302 302 304 304
284 284 286 282 286 285 284 285 285 285 283 285 284 286 289 291 288 287 287 290 292 293 293 294 293 293 292 293 294 295 297 296 295 295 297 298 297 298 298 299 301 302 302 300 300 300 301 302 302 302 301 301 303 304
279 284 285 286 286 284 285 283 285 285 286 285 286 290 290 288 285 284 290 291 292 292 292 292 291 291 292 294 293 294 295 297 295 293 295 297 297 296 296 296 297 299 304 302 301 300 300 300 300 300 301 301 292 302
281 284 287 290 288 288 287 288 288 287 285 285 288 288 288 284 284 288 292 293 292 293 293 293 292 290 290 290 292 294 296 296 294 293 295 297 297 298 298 297 297 300 303 302 302 302 301 301 301 301 302 303 304 303
286 287 284 287 288 289 286 287 287 286 287 289 288 285 284 285 285 290 292 294 293 293 292 292 292 292 291 291 292 293 294 296 296 297 297 297 298 297 297 299 301 293 300 302 302 303 302 301 301 302 303 303 304 305
286 288 288 287 288 288 288 288 288 289 291 288 286 285 286 289 293 292 293 293 293 291 289 289 289 291 291 291 292 292 293 293 291 290 290 290 293 296 299 299 300 301 301 301 292 293 300 302 303 305 305 306 306 306
288 292 289 288 287 286 290 292 291 293 294 293 292 291 291 292 294 296 294 292 290 289 289 289 290 289 289 290 291 293 297 297 297 293 291 291 294 298 300 301 301 302 302 301 301 301 286 294 296 301 301 303 305 305
290 291 289 289 288 291 293 296 296 295 295 293 293 290 288 290 293 296 294 293 292 291 290 288 289 290 290 290 290 290 290 295 297 298 299 299 298 299 300 301 301 301 302 301 301 301 299 298 301 302 303 303 304 302
288 289 288 286 289 293 295 293 292 291 292 291 290 291 290 288 286 291 295 293 291 289 287 288 288 288 291 292 293 294 291 295 296 298 298 298 300 302 301 301 301 300 301 301 300 300 300 299 300 302 302 303 304 305
290 290 291 290 289 290 293 293 291 290 290 288 288 289 288 287 285 290 295 295 292 291 288 288 289 291 292 293 293 294 293 296 297 290 287 288 292 296 303 303 303 302 301 299 299 300 300 300 301 302 302 304 305 306
Wind_Speed
16 17 18 18 17 14 9 6 2 3 4 4 4 6 7 8 10 3 1 1 2 1 3 1 2 1 2 1 2 2 3 2 1 3 3 3 3 3 3 1 2 2 3 2 2 3 8 1 5 5 2 2 2 2
17 18 17 16 14 12 9 5 5 7 6 5 4 4 5 7 8 2 0 2 1 3 3 2 5 6 4 1 0 1 3 1 1 3 2 3 3 3 3 3 1 4 3 1 6 2 1 2 2 4 3 2 2 3
17 21 19 15 14 11 11 9 9 8 7 6 4 4 3 5 6 5 1 2 2 1 3 3 4 2 1 6 3 2 2 1 2 2 3 2 3 2 4 4 3 4 3 2 3 3 6 4 5 6 2 1 4 4
19 20 17 16 14 12 12 11 10 9 8 7 5 4 3 4 5 5 1 1 1 2 2 2 3 3 4 4 2 1 3 4 4 1 1 1 2 3 3 1 4 2 8 5 4 5 5 5 7 4 4 5 5 3
18 17 16 16 14 13 14 13 11 9 9 7 6 4 3 3 5 1 2 1 1 2 2 3 5 1 3 3 6 5 4 3 1 1 1 1 2 3 1 1 4 6 6 6 6 5 3 2 5 7 7 6 5 5
15 15 15 14 14 14 14 14 12 11 11 8 6 4 2 3 3 2 3 2 1 2 2 2 3 2 3 6 8 7 4 3 2 0 1 1 1 3 3 4 3 7 6 4 1 3 3 4 5 6 7 6 6 5
15 14 14 14 13 13 13 13 12 11 10 8 5 3 2 2 1 2 2 3 2 1 2 3 1 2 1 2 3 2 3 3 2 2 1 1 2 2 2 5 4 8 7 6 4 8 4 6 5 7 8 8 8 8
13 13 12 12 12 12 11 13 13 12 9 7 5 3 2 2 3 3 1 4 5 1 1 2 1 2 1 2 3 2 2 1 3 1 2 2 2 1 5 9 7 5 3 4 8 3 1 7 9 8 8 8 7 6
12 12 12 12 13 12 11 10 12 11 9 6 3 1 1 1 2 2 7 7 1 2 1 2 3 4 0 2 2 2 0 2 1 2 2 3 3 6 7 6 6 6 5 4 10 8 5 10 11 9 9 7 6 5
12 11 9 10 14 13 12 10 10 10 7 5 2 2 2 2 3 6 1 2 1 1 0 3 1 3 2 1 2 3 0 2 3 2 4 4 5 7 9 9 7 4 6 7 8 7 8 9 10 10 8 7 6 5
9 7 5 6 9 13 13 11 11 10 5 2 3 2 2 2 2 2 2 2 2 3 4 2 5 3 3 4 3 2 3 3 3 4 4 3 4 4 4 7 11 9 7 12 7 10 14 14 14 12 9 7 6 4
11 8 4 3 11 13 13 12 11 4 2 2 2 2 2 2 2 4 3 2 4 4 4 3 3 2 3 1 2 3 3 3 4 5 4 3 5 4 6 6 3 9 7 9 7 9 11 13 12 11 9 7 5 4
11 16 12 8 12 12 12 11 9 3 4 2 2 3 1 0 2 7 8 4 3 4 3 3 3 3 3 2 3 3 5 5 4 4 4 4 0 2 6 6 3 6 6 8 7 10 14 14 11 10 9 7 6 4
12 9 12 11 11 11 10 9 6 4 2 1 3 4 2 2 3 2 2 3 2 2 2 2 3 2 1 4 2 5 3 3 4 4 5 1 2 7 8 7 4 4 7 9 11 14 15 14 11 9 8 7 6 4
10 11 14 9 10 7 6 4 5 1 0 2 1 2 2 1 0 1 0 1 2 0 2 3 2 2 2 3 3 2 5 6 4 4 1 4 8 8 9 7 3 5 9 11 13 13 12 12 11 8 6 5 4 3
15 10 3 7 8 6 5 4 1 1 3 2 1 2 2 2 2 1 1 2 1 1 2 1 2 3 4 2 5 6 4 5 3 2 4 6 8 7 6 4 2 5 8 11 11 11 11 10 9 8 7 4 3 1
9 2 9 9 7 6 7 3 3 3 1 2 2 1 1 1 1 1 1 1 0 1 1 1 3 2 1 3 4 2 1 2 2 2 2 4 7 7 5 3 5 8 10 10 9 8 7 6 5 3 3 2 5 4
3 4 7 6 3 3 2 2 4 3 2 1 2 2 1 0 0 1 1 1 1 2 2 1 1 1 2 3 3 3 1 0 0 2 2 3 3 5 7 9 9 9 9 8 8 6 4 1 3 5 4 4 4 4
5 6 8 7 4 2 2 1 2 2 2 1 1 1 1 1 3 2 1 1 1 1 4 2 3 3 3 2 3 4 3 2 3 3 2 3 3 2 4 5 5 5 6 5 5 4 4 3 3 3 4 2 5 2
14 10 9 9 3 1 2 1 1 2 2 1 1 2 2 1 0 2 2 3 2 2 3 3 3 3 4 5 5 4 3 2 2 3 2 2 2 2 3 2 1 1 3 2 2 3 2 3 4 1 0 2 4 6
5 4 7 6 2 1 1 2 2 1 1 2 1 2 1 1 2 3 2 3 3 3 4 4 3 3 4 3 4 5 5 4 5 5 5 4 3 4 5 3 3 2 5 3 6 4 3 4 3 2 3 4 4 5
2 4 1 1 0 1 0 1 1 1 1 1 1 1 2 2 3 3 3 4 3 4 4 3 5 5 5 5 6 8 9 8 7 5 5 6 8 9 7 6 5 7 7 7 8 7 6 5 4 4 2 1 3 4
3 1 1 0 1 1 2 0 1 1 1 1 1 2 2 2 1 3 3 3 1 2 2 2 4 4 5 6 5 6 5 7 8 9 9 8 8 8 8 8 8 9 9 9 7 8 8 8 6 3 2 2 5 5
0 1 1 1 1 1 0 1 1 1 1 2 2 2 2 2 3 3 2 2 2 2 3 5 5 4 2 2 2 2 2 3 5 5 5 6 6 8 7 8 8 9 10 9 9 9 9 9 7 6 6 6 7 7
1 2 1 2 1 1 1 1 2 1 2 2 2 2 1 1 3 3 1 3 2 2 3 3 3 3 4 6 6 6 6 5 6 8 8 7 8 8 8 8 9 9 8 8 10 10 11 10 10 10 10 10 10 10
2 1 0 1 1 1 1 1 1 1 1 2 2 1 1 1 3 2 2 3 1 1 3 5 6 8 8 8 10 9 8 5 6 9 11 8 9 10 11 11 10 11 8 9 10 12 13 11 12 13 10 11 8 10
2 2 0 1 1 2 2 1 0 1 1 1 2 3 2 2 1 3 1 2 2 3 6 7 7 8 9 9 9 11 10 8 9 9 9 9 10 10 11 11 13 11 9 9 8 10 12 12 13 12 11 9 10 12
1 2 2 3 2 0 2 2 2 2 1 1 2 1 2 3 2 1 2 1 3 5 5 6 6 7 8 8 8 9 10 10 11 11 10 11 11 11 13 12 13 13 11 10 10 7 6 8 11 12 12 11 9 9
1 0 2 3 0 1 1 1 2 2 1 1 1 1 1 0 1 2 3 4 5 5 6 7 8 7 7 7 8 9 8 8 9 14 15 13 11 11 11 12 12 12 10 12 12 13 15 9 6 5 5 5 5 5
3 2 2 2 2 1 2 1 1 1 1 1 1 0 1 1 1 3 4 5 6 7 7 8 8 8 9 9 10 12 8 9 9 11 12 14 13 11 9 11 12 12 10 10 11 9 4 7 7 6 5 5 6 6
3 1 1 1 1 1 2 3 2 2 2 3 3 2 2 1 1 1 4 6 7 7 8 10 10 9 8 10 10 12 13 9 13 16 16 12 11 11 9 8 8 8 9 11 10 10 10 11 11 11 11 10 9 8
1 0 0 1 1 2 2 3 2 1 1 1 2 3 2 2 2 1 3 6 8 10 13 11 10 13 13 11 11 12 15 14 15 13 17 9 9 10 9 8 7 6 9 10 10 10 13 16 13 13 11 11 10 10
2 2 2 1 1 2 2 3 3 2 2 1 1 2 2 2 3 3 3 2 5 9 11 11 11 12 14 14 14 14 16 14 19 11 7 7 7 5 6 7 7 9 11 9 9 11 15 18 15 14 12 11 10 9
Wind_Direction
174 171 170 167 169 169 168 130 160 258 272 307 331 350 1 9 10 8 28 302 323 280 280 276 320 202 155 208 232 59 210 173 92 135 188 160 194 170 188 97 174 169 166 207 149 263 282 82 132 222 15 167 153 122
172 168 172 168 176 174 129 151 200 227 239 265 296 323 352 6 6 30 129 54 320 247 323 307 284 280 273 333 226 165 355 163 150 107 177 134 159 176 157 200 81 198 227 244 206 262 28 257 275 304 241 247 169 138
183 173 170 175 185 161 152 184 204 219 231 234 262 291 331 358 3 13 337 339 227 300 266 286 245 24 187 211 221 281 193 152 169 346 136 107 191 164 174 212 161 213 147 215 212 198 255 258 243 247 222 298 111 109
180 165 167 175 177 154 169 185 204 212 217 222 241 268 296 341 353 1 297 39 279 78 276 288 329 289 336 211 173 226 121 105 92 299 104 137 193 221 189 39 236 57 164 186 246 261 265 240 231 217 140 125 133 132
166 168 177 177 160 177 182 185 198 204 215 213 226 252 279 332 348 337 250 215 287 291 307 292 302 6 326 146 101 90 98 102 98 147 159 164 104 184 130 159 201 194 178 204 252 201 225 162 167 153 149 165 152 134
166 173 176 173 169 184 189 188 190 196 212 214 220 233 287 333 358 235 184 157 244 256 265 286 16 355 63 106 91 69 61 71 62 82 114 133 51 270 226 242 241 223 219 239 264 179 199 139 144 159 156 137 121 96
171 171 175 174 179 186 191 198 186 198 200 199 213 229 283 337 314 255 5 69 126 228 229 260 210 48 0 95 64 67 48 67 17 95 190 183 160 266 229 250 230 237 242 228 218 143 130 186 172 156 137 121 105 92
162 167 169 172 171 179 184 182 183 192 192 191 211 241 291 333 268 257 167 215 190 161 245 242 194 197 348 134 130 2 107 95 49 81 169 218 152 242 248 242 262 268 263 225 213 222 318 138 135 126 126 133 113 84
156 163 170 176 167 171 175 180 180 169 175 183 195 259 122 159 178 134 123 128 116 299 201 207 195 176 183 94 93 128 286 182 57 224 206 200 172 224 225 231 240 226 208 229 207 193 157 169 147 143 137 126 107 76
139 152 155 168 178 168 171 172 166 160 164 154 151 200 174 194 187 139 64 163 160 12 163 243 145 175 203 174 115 139 351 164 212 165 131 221 256 266 256 237 248 225 213 172 147 163 166 165 158 149 132 112 105 75
137 143 132 179 178 171 171 174 161 147 129 181 177 154 67 159 154 58 128 201 161 213 192 215 213 153 178 177 143 256 159 162 224 143 213 200 258 243 275 257 236 232 221 206 233 209 188 172 161 148 139 130 111 98
179 191 188 214 159 159 156 157 160 171 195 154 104 99 150 163 99 155 185 166 219 220 174 192 179 217 136 213 172 171 188 184 231 136 202 211 247 275 310 309 267 204 197 191 189 170 162 153 152 145 141 132 120 112
153 159 167 174 155 155 158 159 172 178 134 138 188 108 169 63 144 188 181 181 209 182 178 172 173 174 154 206 102 171 188 211 126 195 222 232 188 300 334 319 280 206 203 182 171 165 150 139 137 140 133 131 139 143
119 132 163 169 155 146 155 165 184 179 213 162 149 141 214 169 227 186 161 128 100 163 146 175 139 200 144 166 138 192 147 168 211 206 215 183 11 327 324 315 277 197 184 171 159 153 147 144 139 135 140 150 160 134
133 117 121 136 135 138 139 135 157 197 128 97 148 136 161 71 145 148 345 217 151 161 155 147 142 214 153 164 205 137 178 226 222 201 69 358 329 317 311 312 274 170 162 157 154 150 144 140 140 143 154 169 174 142
128 106 117 134 96 85 107 107 21 185 50 52 89 104 83 148 150 189 138 119 120 134 145 163 152 182 197 214 185 208 208 200 120 38 351 336 339 335 320 312 175 157 154 148 144 142 143 149 160 161 160 185 224 226
89 62 144 116 97 59 35 43 53 68 10 51 80 57 85 41 105 119 235 78 327 178 127 147 201 179 44 221 199 192 259 65 59 20 356 349 6 8 16 62 141 144 138 136 132 132 131 129 168 166 75 289 252 233
64 117 109 100 55 33 55 76 137 165 215 159 184 152 203 305 190 247 264 313 277 112 159 144 129 185 228 209 166 103 78 25 84 353 1 2 14 45 74 87 91 94 98 103 99 99 105 161 87 58 14 342 265 230
125 126 96 66 64 90 96 57 0 94 89 116 149 191 243 245 250 272 247 1 29 30 131 146 166 187 205 212 152 131 103 67 53 24 12 12 354 62 94 99 110 110 114 116 122 118 111 94 13 34 29 24 284 261
94 61 37 37 39 58 100 94 227 133 169 122 190 190 230 218 294 235 194 172 171 172 203 217 209 195 201 186 183 169 171 165 3 346 338 10 3 301 255 205 164 131 142 150 146 236 186 231 243 244 15 225 272 275
62 30 29 15 9 19 329 145 144 207 146 210 119 214 206 220 218 208 185 151 187 219 224 220 227 230 226 248 256 243 231 225 245 244 261 279 311 305 294 267 231 152 255 189 234 223 224 229 250 268 232 217 226 254
95 150 249 268 31 130 147 153 25 97 215 78 203 213 225 212 207 202 136 191 223 226 216 226 238 253 248 232 226 222 236 238 244 262 269 263 273 278 266 255 244 246 241 240 240 236 223 235 223 229 188 266 240 242
127 162 189 163 154 59 91 221 209 113 224 128 230 229 212 214 168 157 221 216 203 27 338 340 331 311 288 297 293 272 261 253 256 259 260 258 259 260 258 257 250 249 254 252 251 250 250 250 238 229 232 221 235 230
68 15 33 50 71 93 218 141 116 161 197 213 218 234 204 200 153 216 236 94 80 57 61 29 7 352 339 287 281 303 287 291 273 261 248 249 251 252 248 254 255 249 246 247 246 240 238 239 230 219 234 240 227 229
45 354 49 353 181 205 166 163 167 203 245 196 238 243 144 196 230 205 138 121 144 70 24 2 347 336 302 292 283 279 275 273 273 276 270 254 263 264 258 249 249 249 247 243 241 235 236 236 237 240 237 232 229 225
77 173 204 44 102 270 27 305 211 265 258 241 235 318 287 252 249 110 72 56 57 33 345 323 313 303 287 277 282 282 285 284 271 264 269 268 259 256 256 256 253 250 226 230 238 240 239 236 233 221 216 216 218 220
20 50 11 246 287 265 263 256 5 273 291 340 2 322 296 241 121 74 94 66 345 335 316 305 296 283 279 279 275 275 275 262 238 245 257 259 258 254 249 247 246 252 256 244 236 234 242 237 228 223 218 213 213 212
322 319 346 353 303 304 331 3 339 6 35 11 317 295 348 16 55 16 30 25 323 308 293 289 279 276 279 278 276 276 273 266 262 256 254 250 242 241 242 245 250 252 251 252 250 242 243 248 243 226 214 214 214 209
266 358 271 314 353 97 23 57 35 6 28 30 349 320 26 221 30 46 21 346 320 307 303 307 305 296 281 273 265 259 256 254 249 247 243 248 247 235 221 225 233 237 235 239 222 231 241 241 248 239 211 208 209 210
64 336 348 354 36 31 21 78 108 124 152 39 333 307 21 57 82 81 347 332 333 324 310 298 297 299 293 293 293 289 276 261 247 241 250 251 248 253 243 225 222 227 223 227 225 218 158 213 221 240 235 227 209 212
323 331 81 38 350 336 115 146 134 117 90 54 35 37 32 355 305 305 341 340 330 322 323 326 322 309 304 313 304 301 296 287 275 267 257 254 245 243 242 224 216 213 207 211 215 214 201 208 204 213 223 225 219 215
186 203 65 85 116 155 149 187 191 255 188 39 41 29 7 345 340 301 326 332 336 343 336 328 323 318 322 311 309 304 293 295 293 269 259 249 246 229 225 189 177 195 200 204 210 213 215 210 205 203 215 227 227 217
210 197 195 219 220 217 182 214 204 194 134 46 62 37 9 356 354 318 294 287 321 339 322 314 309 310 310 311 319 314 321 312 323 312 277 215 215 185 175 171 181 193 199 194 202 208 210 205 203 203 209 219 212 208